Tracking 22836 objects as of 17-Apr-2021
HD Live streaming from Space Station
objects crossing your sky now

STARLINK-1175


STARLINK-1175 is no longer on orbit
STARLINK-1175 is classified as:


NORAD ID: 45097
Int'l Code: 2020-006BF
Perigee: N/A
Apogee: N/A
Inclination: N/A
Period: N/A
Semi major axis: N/A
RCS: N/A
Launch date: January 29, 2020
Source: United States (US)
Launch site: AIR FORCE EASTERN TEST RANGE (AFETR)
Decay date: 2021-03-19
aabbcc
Your satellite tracking list
Your tracking list is empty




NASA's NSSDC Master Catalog

Two Line Element Set (TLE):
1 45097U 20006BF  21077.92898017  .11012273  12156-4  21011-2 0  9997
2 45097  52.9706 297.1523 0011421 281.5423  79.1913 16.30956567 66201
Source of the keplerian elements: AFSPC